Weather History for KEVW - December, 2012

Change the Weather History Date:

Monday, December 24, 2012

  Actual Average Record
Temperature  
Mean Temperature 25 °F 20 °F  
Max Temperature 29 °F 28 °F 40 °F (2005)
Min Temperature 21 °F 13 °F 1 °F (2001)
Degree Days  
Heating Degree Days 40 45  
Month to date heating degree days 951 1060  
Since 1 July heating degree days 2596 3169  
Cooling Degree Days 0 0  
Month to date cooling degree days 0 0  
Year to date cooling degree days 346 162  
Moisture  
Dew Point 21 °F    
Average Humidity 85    
Maximum Humidity 92    
Minimum Humidity 78    
Precipitation  
Precipitation 0.04 in 0.02 in 0.08 in (2000)
Month to date precipitation 0.12 0.46  
Year to date precipitation 5.67 12.01  
Sea Level Pressure  
Sea Level Pressure 29.77 in    
Wind  
Wind Speed 10 mph (West)    
Max Wind Speed 16 mph    
Max Gust Speed 25 mph    
Visibility 4 miles    
Events Fog , Snow    
T = Trace of Precipitation, MM = Missing Value Source: NWS Daily Summary

Daily Weather History Graph

Daily Weather History Graph

Search for Another Location

Airport or City:

Trip Planner

Search our weather history database for the weather conditions in past years. The results will help you decide how hot, cold, wet, or windy it might be!

Date:

Astronomy

Dec. 24, 2012 Rise Set
Actual Time 7:48 AM MST 5:00 PM MST
Civil Twilight 7:16 AM MST 5:31 PM MST
Nautical Twilight 6:41 AM MST 6:06 PM MST
Astronomical Twilight 6:08 AM MST 6:39 PM MST
Moon 2:30 PM MST (12/24) 4:28 AM MST (12/24)
Length of Visible Light 10h 14m
Length of Day
9h 12m
Waxing Gibbous, 89% of the Moon is Illuminated
Dec 24
Waxing Gibbous
Dec 28
Full
Jan 4
Last Quarter
Jan 11
New
Jan 18
First Quarter

Hourly Weather History & Observations

Time (MST) Temp. Windchill Dew Point Humidity Pressure Visibility Wind Dir Wind Speed Gust Speed Precip Events Conditions
12:53 AM 28.9 °F 16.5 °F 23.0 °F 78% 29.79 in 10.0 mi SW 18.4 mph - N/A   Mostly Cloudy
1:53 AM 27.0 °F 14.7 °F 23.0 °F 85% 29.78 in 10.0 mi SW 16.1 mph 23.0 mph N/A   Clear
2:53 AM 26.1 °F 16.8 °F 23.0 °F 88% 29.78 in 10.0 mi SW 9.2 mph - N/A   Mostly Cloudy
3:12 AM 26.6 °F 19.1 °F 24.8 °F 93% 29.76 in 9.0 mi SW 6.9 mph - N/A   Mostly Cloudy
3:31 AM 26.6 °F 19.1 °F 24.8 °F 93% 29.76 in 8.0 mi SW 6.9 mph - 0.00 in   Mostly Cloudy
3:53 AM 26.1 °F 21.9 °F 25.0 °F 96% 29.78 in 10.0 mi SW 3.5 mph - 0.00 in   Overcast
4:25 AM 26.6 °F 20.0 °F 24.8 °F 93% 29.74 in 2.0 mi SSW 5.8 mph - 0.00 in Snow Light Snow
4:31 AM 26.6 °F 19.1 °F 24.8 °F 93% 29.75 in 3.0 mi SSW 6.9 mph - 0.00 in Snow Light Snow
4:44 AM 26.6 °F 19.1 °F 24.8 °F 93% 29.74 in 1.8 mi SSW 6.9 mph - 0.00 in Snow Light Snow
4:53 AM 27.0 °F 18.0 °F 25.0 °F 92% 29.77 in 1.5 mi SW 9.2 mph - 0.00 in Snow Light Snow
5:01 AM 26.6 °F 20.0 °F 24.8 °F 93% 29.74 in 1.8 mi SSW 5.8 mph - 0.00 in Snow Light Snow
5:09 AM 26.6 °F 18.2 °F 24.8 °F 93% 29.73 in 3.0 mi SSW 8.1 mph - 0.00 in Snow Light Snow
5:53 AM 26.1 °F 19.4 °F 25.0 °F 96% 29.76 in 10.0 mi SSW 5.8 mph - 0.00 in   Overcast
6:00 AM 26.6 °F 20.0 °F 24.8 °F 93% 29.72 in 10.0 mi SSW 5.8 mph - N/A   Overcast
6:30 AM 26.6 °F 21.2 °F 24.8 °F 93% 29.72 in 2.5 mi South 4.6 mph - 0.00 in Snow Light Snow
6:36 AM 26.6 °F 22.6 °F 24.8 °F 93% 29.72 in 1.5 mi SSE 3.5 mph - 0.00 in Snow Light Snow
6:43 AM 26.6 °F 22.6 °F 24.8 °F 93% 29.72 in 1.8 mi SE 3.5 mph - 0.00 in Snow Light Snow
6:53 AM 26.1 °F 21.9 °F 24.1 °F 92% 29.76 in 1.5 mi SE 3.5 mph - 0.00 in Snow Light Snow
6:57 AM 26.6 °F 22.6 °F 24.8 °F 93% 29.72 in 2.0 mi SSE 3.5 mph - 0.00 in Snow Light Snow
7:07 AM 26.6 °F 21.2 °F 24.8 °F 93% 29.72 in 8.0 mi SSW 4.6 mph - 0.00 in Snow Light Snow
7:29 AM 26.6 °F 17.5 °F 24.8 °F 93% 29.72 in 10.0 mi SW 9.2 mph - 0.00 in   Overcast
7:45 AM 26.6 °F 17.5 °F 24.8 °F 93% 29.72 in 10.0 mi SW 9.2 mph - 0.00 in   Overcast
7:53 AM 26.1 °F 16.8 °F 24.1 °F 92% 29.75 in 10.0 mi SSW 9.2 mph - 0.00 in   Overcast
8:03 AM 26.6 °F 17.5 °F 24.8 °F 93% 29.72 in 1.8 mi SW 9.2 mph - 0.00 in Snow Light Snow
8:08 AM 26.6 °F 17.5 °F 24.8 °F 93% 29.72 in 1.0 mi SW 9.2 mph - 0.00 in Snow Light Snow
8:15 AM 26.6 °F 17.5 °F 24.8 °F 93% 29.72 in 2.5 mi SW 9.2 mph - 0.00 in Snow Light Snow
8:21 AM 26.6 °F 17.5 °F 24.8 °F 93% 29.71 in 8.0 mi SW 9.2 mph - 0.00 in   Overcast
8:29 AM 26.6 °F 17.5 °F 24.8 °F 93% 29.71 in 10.0 mi SW 9.2 mph - 0.00 in   Overcast
8:53 AM 26.1 °F 18.4 °F 25.0 °F 96% 29.75 in 10.0 mi SW 6.9 mph - 0.00 in   Mostly Cloudy
9:15 AM 26.6 °F 19.1 °F 24.8 °F 93% 29.72 in 10.0 mi SW 6.9 mph - N/A   Mostly Cloudy
9:44 AM 26.6 °F 19.1 °F 26.6 °F 100% 29.72 in 1.8 mi SW 6.9 mph - 0.00 in Snow Light Snow
9:46 AM 26.6 °F 17.5 °F 26.6 °F 100% 29.72 in 1.5 mi SW 9.2 mph - 0.00 in Snow Light Snow
9:53 AM 27.0 °F 18.7 °F 26.1 °F 96% 29.76 in 1.2 mi SW 8.1 mph - 0.00 in Snow Light Snow
10:12 AM 28.4 °F 20.4 °F 26.6 °F 93% 29.73 in 2.0 mi SW 8.1 mph - 0.00 in Snow Light Snow
10:21 AM 28.4 °F 20.4 °F 26.6 °F 93% 29.73 in 1.5 mi SW 8.1 mph - 0.00 in Snow Light Snow
10:30 AM 28.4 °F 19.1 °F 26.6 °F 93% 29.73 in 0.5 mi SW 10.4 mph - 0.00 in Fog , Snow Snow
10:53 AM 28.0 °F 19.3 °F 26.1 °F 92% 29.75 in 0.8 mi SW 9.2 mph - 0.00 in Snow Light Snow
11:05 AM 28.4 °F 19.7 °F 26.6 °F 93% 29.72 in 0.5 mi North 9.2 mph - 0.00 in Fog , Snow Light Snow
11:19 AM 26.6 °F 16.2 °F 24.8 °F 93% 29.72 in 0.2 mi NNW 11.5 mph - 0.01 in Fog , Snow Snow
11:34 AM 26.6 °F 17.5 °F 24.8 °F 93% 29.72 in 0.5 mi NNW 9.2 mph - 0.01 in Fog , Snow Snow
11:38 AM 26.6 °F 17.5 °F 24.8 °F 93% 29.72 in 1.0 mi NNW 9.2 mph - 0.01 in Snow Light Snow
11:53 AM 28.0 °F 19.3 °F 25.0 °F 88% 29.73 in 0.5 mi NNW 9.2 mph - 0.01 in Fog , Snow Snow
12:01 PM 28.4 °F 19.1 °F 24.8 °F 86% 29.70 in 1.0 mi NNW 10.4 mph - 0.00 in Snow Light Snow
12:25 PM 26.6 °F 16.8 °F 24.8 °F 93% 29.70 in 1.8 mi NNW 10.4 mph - 0.00 in Snow Light Snow
12:35 PM 26.6 °F 17.5 °F 24.8 °F 93% 29.70 in 2.0 mi NNW 9.2 mph - 0.00 in Snow Light Snow
12:42 PM 26.6 °F 17.5 °F 24.8 °F 93% 29.70 in 3.0 mi NNW 9.2 mph - 0.00 in Snow Light Snow
12:49 PM 28.4 °F 21.2 °F 24.8 °F 86% 29.69 in 4.0 mi North 6.9 mph - 0.00 in Snow Light Snow
12:53 PM 28.0 °F 20.0 °F 24.1 °F 85% 29.70 in 4.0 mi North 8.1 mph - 0.00 in Snow Light Snow
1:39 PM 28.4 °F 23.3 °F 24.8 °F 86% 29.69 in 1.2 mi North 4.6 mph - 0.00 in Snow Light Snow
1:44 PM 26.6 °F 22.6 °F 24.8 °F 93% 29.69 in 0.5 mi North 3.5 mph - 0.01 in Fog , Snow Snow
1:53 PM 27.0 °F - 25.0 °F 92% 29.72 in 0.5 mi Calm Calm - 0.02 in Fog , Snow Light Snow
1:59 PM 28.4 °F - 24.8 °F 86% 29.69 in 1.8 mi Calm Calm - 0.00 in Snow Light Snow
2:01 PM 26.6 °F 22.6 °F 24.8 °F 93% 29.69 in 2.0 mi West 3.5 mph - 0.00 in Snow Light Snow
2:07 PM 26.6 °F 21.2 °F 24.8 °F 93% 29.69 in 3.0 mi SW 4.6 mph - 0.00 in Snow Light Snow
2:17 PM 26.6 °F 13.8 °F 24.8 °F 93% 29.69 in 1.5 mi West 17.3 mph - 0.00 in Snow Light Snow
2:26 PM 26.6 °F 14.3 °F 19.4 °F 74% 29.69 in 0.8 mi West 16.1 mph - 0.00 in Snow Light Snow
2:33 PM 26.6 °F 13.4 °F 19.4 °F 74% 29.69 in 1.2 mi West 18.4 mph - 0.01 in Snow Light Snow
2:41 PM 26.6 °F 13.8 °F 19.4 °F 74% 29.70 in 0.8 mi WNW 17.3 mph - 0.01 in Snow Light Snow
2:45 PM 26.6 °F 15.2 °F 19.4 °F 74% 29.70 in 2.0 mi WNW 13.8 mph 23.0 mph 0.01 in Snow Light Snow
2:48 PM 26.6 °F 13.1 °F 19.4 °F 74% 29.71 in 3.0 mi WNW 19.6 mph 23.0 mph 0.01 in Snow Light Snow
2:51 PM 26.6 °F 14.3 °F 19.4 °F 74% 29.71 in 2.5 mi WNW 16.1 mph 23.0 mph 0.01 in Snow Light Snow
2:53 PM 25.0 °F 12.6 °F 19.0 °F 78% 29.75 in 2.0 mi WNW 15.0 mph 23.0 mph 0.01 in Snow Light Snow
3:03 PM 26.6 °F 14.3 °F 17.6 °F 69% 29.72 in 3.0 mi WNW 16.1 mph - 0.00 in Snow Light Snow
3:14 PM 24.8 °F 11.1 °F 17.6 °F 74% 29.73 in 1.8 mi WNW 18.4 mph - 0.00 in Snow Light Snow
3:19 PM 24.8 °F 10.7 °F 17.6 °F 74% 29.74 in 0.8 mi WNW 19.6 mph - 0.00 in Snow Light Snow
3:32 PM 21.2 °F 8.3 °F 17.6 °F 86% 29.74 in 0.5 mi WNW 13.8 mph - 0.00 in Fog , Snow Snow
3:53 PM 21.9 °F 11.0 °F 18.0 °F 85% 29.82 in 0.5 mi WNW 10.4 mph - 0.00 in Fog , Snow Snow
4:08 PM 21.2 °F 8.3 °F 17.6 °F 86% 29.76 in 0.8 mi NW 13.8 mph - 0.00 in Snow Light Snow
4:19 PM 21.2 °F 9.5 °F 17.6 °F 86% 29.77 in 1.5 mi NW 11.5 mph - 0.00 in Snow Light Snow
4:21 PM 21.2 °F 8.3 °F 17.6 °F 86% 29.77 in 2.0 mi NW 13.8 mph - 0.00 in Snow Light Snow
4:33 PM 21.2 °F 8.9 °F 17.6 °F 86% 29.78 in 4.0 mi NW 12.7 mph - 0.00 in Snow Light Snow
4:42 PM 21.2 °F 9.5 °F 17.6 °F 86% 29.79 in 1.8 mi NW 11.5 mph - 0.00 in Snow Light Snow
4:49 PM 21.2 °F 9.5 °F 17.6 °F 86% 29.79 in 1.2 mi NW 11.5 mph - 0.00 in Snow Light Snow
4:53 PM 21.0 °F 10.6 °F 18.0 °F 88% 29.86 in 1.2 mi NW 9.2 mph - 0.00 in Snow Light Snow
5:10 PM 19.4 °F 7.9 °F 17.6 °F 93% 29.80 in 1.2 mi NW 10.4 mph - 0.00 in Snow Light Snow
5:21 PM 19.4 °F 8.6 °F 17.6 °F 93% 29.81 in 0.8 mi NW 9.2 mph - 0.00 in Snow Light Snow
5:30 PM 19.4 °F 10.4 °F 17.6 °F 93% 29.82 in 1.0 mi NW 6.9 mph - 0.00 in Snow Light Snow
5:53 PM 19.9 °F 9.3 °F 16.0 °F 85% 29.91 in 1.5 mi NW 9.2 mph - 0.00 in Snow Light Snow
6:05 PM 19.4 °F 7.9 °F 15.8 °F 86% 29.84 in 1.2 mi WNW 10.4 mph - 0.00 in Snow Light Snow
6:18 PM 19.4 °F 6.6 °F 15.8 °F 86% 29.85 in 2.0 mi West 12.7 mph - 0.00 in Snow Light Snow
6:30 PM 17.6 °F 5.0 °F 14.0 °F 86% 29.86 in 1.8 mi West 11.5 mph - 0.00 in Snow Light Snow
6:46 PM 17.6 °F 6.4 °F 14.0 °F 86% 29.86 in 2.0 mi WNW 9.2 mph - 0.00 in Snow Light Snow
6:53 PM 17.1 °F 4.3 °F 14.0 °F 88% 29.96 in 1.8 mi West 11.5 mph - 0.00 in Snow Light Snow
7:00 PM 17.6 °F 4.3 °F 12.2 °F 79% 29.88 in 2.0 mi West 12.7 mph - 0.00 in Snow Light Snow
7:22 PM 17.6 °F 6.4 °F 12.2 °F 79% 29.88 in 1.5 mi West 9.2 mph - 0.00 in Snow Light Snow
7:40 PM 15.8 °F 2.7 °F 12.2 °F 86% 29.89 in 2.0 mi West 11.5 mph - 0.00 in Snow Light Snow
7:53 PM 16.0 °F 2.9 °F 10.9 °F 81% 30.00 in 3.0 mi West 11.5 mph - 0.00 in Snow Light Snow
8:39 PM 12.2 °F 0.7 °F 10.4 °F 92% 29.91 in 7.0 mi WSW 8.1 mph - 0.00 in Snow Light Snow
8:53 PM 12.9 °F 1.6 °F 10.0 °F 88% 30.03 in 10.0 mi WSW 8.1 mph - 0.00 in   Overcast
9:53 PM 12.0 °F -0.4 °F 9.0 °F 88% 30.05 in 10.0 mi SW 9.2 mph - 0.00 in   Overcast
10:53 PM 12.0 °F -1.3 °F 8.1 °F 84% 30.08 in 10.0 mi SW 10.4 mph - N/A   Overcast
11:53 PM 12.9 °F 1.6 °F 10.0 °F 88% 30.08 in 10.0 mi WSW 8.1 mph - 0.00 in   Overcast